Flag for Russia Weather past 2 weeks in Kazan, Russia

Now
1 °F

Clear.


Feels Like: -15 °F
Forecast: 1 / 23 °F
Wind: 10 mph from Southeast

Location: Kazan'

Current Time: Jan 30, 2015 at 6:04:39 PM

Latest Report: Jan 30, 2015 at 5:30 PM


Visibility: 10 mi

Pressure: 30.12 "Hg

Humidity: 85%

Dew point: -2 °F

Location of KazanLocation

Historic Weather in Kazan — Graph

°F

Kazan temperature yesterday

Maximum temperature yesterday: 10 °F (at 12:00 AM)
Minimum temperature yesterday: 5 °F (at 7:00 AM)
Average temperature yesterday: 7 °F

Past Weeks' High & Low Weather Summary

 TemperatureHumidityPressure
High36 °F (Jan 15, 6:00 PM)100% (Jan 15, 4:00 PM)30.80 "Hg (Jan 15, 4:00 PM)
Low-9 °F (Jan 23, 6:30 PM)62% (Jan 20, 2:30 PM)29.89 "Hg (Jan 15, 4:00 PM)
Average11 °F85%30.29 "Hg
* Reported Jan 15 4:00 PM — Jan 30 4:30 PM, Kazan, Weather by CustomWeather, © 2014

Note: Actual official high and low records may vary slightly from our data, if they occured in-between our weather recording intervals... More about our weather records

Advertising

Kazan weather history for previous 24 hours

 ConditionsComfort  
Time TempWeatherWind HumidityBarometerVisibility
4:30 PM
Jan 30
1 °FBroken clouds.8 mph85%30.12 "HgN/A
4:00 PM1 °FBroken clouds.10 mph85%30.12 "HgN/A
3:30 PM3 °FBroken clouds.13 mph85%30.12 "HgN/A
3:00 PM3 °FBroken clouds.13 mph78%30.12 "HgN/A
2:30 PM3 °FBroken clouds.10 mph85%30.12 "HgN/A
2:00 PM3 °FBroken clouds.10 mph85%30.12 "HgN/A
1:30 PM3 °FBroken clouds.10 mph85%30.12 "HgN/A
1:00 PM3 °FPartly sunny.10 mph85%30.12 "HgN/A
12:30 PM3 °FLow level haze.10 mph85%30.12 "HgN/A
12:00 PM3 °FLow level haze.10 mph85%30.12 "HgN/A
11:30 AM3 °FLow level haze.10 mph85%30.12 "HgN/A
11:00 AM3 °FLow level haze.10 mph85%30.12 "HgN/A
10:30 AM3 °FLow level haze.10 mph85%30.12 "HgN/A
10:00 AM1 °FLow level haze.10 mph92%30.12 "HgN/A
9:00 AM1 °FSunny.13 mph92%30.09 "Hg10 mi
8:00 AM0 °FPartly cloudy.10 mph84%30.09 "HgN/A
7:30 AM0 °FClear.10 mph92%30.09 "Hg10 mi
7:00 AM0 °FPartly cloudy.13 mph92%30.09 "HgN/A
6:30 AM1 °FPartly cloudy.10 mph92%30.07 "HgN/A
6:00 AM1 °FPartly cloudy.10 mph92%30.09 "HgN/A
5:30 AM1 °FPartly cloudy.10 mph92%30.07 "HgN/A
5:00 AM1 °FPassing clouds.10 mph92%30.09 "HgN/A
4:30 AM3 °FPassing clouds.10 mph85%30.07 "HgN/A
4:00 AM3 °FPassing clouds.10 mph85%30.07 "HgN/A
3:30 AM5 °FPassing clouds.13 mph85%30.07 "HgN/A
3:00 AM7 °FOvercast.15 mph85%30.07 "HgN/A
2:30 AM7 °FOvercast.15 mph92%30.07 "HgN/A
2:00 AM9 °FOvercast.15 mph85%30.07 "HgN/A
1:30 AM9 °FOvercast.10 mph85%30.07 "HgN/A
1:00 AM9 °FOvercast.13 mph85%30.07 "HgN/A
12:30 AM9 °FOvercast.13 mph85%30.07 "HgN/A
12:00 AM9 °FLight snow. Overcast.13 mph85%30.07 "HgN/A
11:30 PM
Jan 29
9 °FLight snow. Overcast.13 mph85%30.07 "HgN/A
11:00 PM7 °FLight snow. Overcast.13 mph92%30.07 "HgN/A
10:30 PM7 °FLight snow. Mostly cloudy.13 mph92%30.07 "HgN/A
10:00 PM7 °FLight snow. Mostly cloudy.10 mph92%30.07 "Hg3 mi
9:30 PM7 °FLight snow. Mostly cloudy.15 mph92%30.07 "Hg3 mi
9:00 PM7 °FLight snow. Mostly cloudy.13 mph85%30.07 "Hg3 mi
8:30 PM7 °FLight snow. Mostly cloudy.13 mph85%30.07 "Hg3 mi
8:00 PM7 °FLight snow. Overcast.13 mph85%30.07 "Hg1 mi
7:30 PM7 °FLight snow. Overcast.13 mph85%30.07 "Hg2 mi
7:00 PM7 °FLight snow. Overcast.13 mph85%30.07 "Hg2 mi
6:30 PM7 °FLight snow. Overcast.13 mph85%30.07 "HgN/A
6:00 PM5 °FLight snow. Overcast.13 mph92%30.07 "HgN/A
Weather by CustomWeather, © 2014

See weather overviewHow to use our weather pages